Location: Grand Moustoir
(47.8355°N, 3.3120°W)
Time: 00:44:46
(UTC+00:00)

Cosmos 1908 - Pass Details

Date: 20 January 2020
Orbit: 511 x 532 km, 82.5° (Epoch: 28 February)

Event Time Altitude Azimuth Distance (km) Brightness Sun altitude
Rises 06:32:04 0° 191° (S) 2,664 6.9 -13.5°
Reaches altitude 10° 06:34:12 10° 192° (SSW) 1,780 6.0 -13.2°
Maximum altitude 06:38:07 79° 280° (W) 549 3.1 -12.6°
Drops below altitude 10° 06:42:04 10° 7° (N) 1,793 5.8 -11.9°
Sets 06:44:14 0° 9° (N) 2,686 6.7 -11.6°
